Regional Weather Roundup
Issued by NWS Sterling, VA

Home | Current Version | Previous Version | Text Only | Print | Product List | Glossary Off
Versions: 1 2 3 4 5 6 7 8 9 10 11 12 13 14 15 16 17 18 19 20 21 22 23 24 25 26 27 28 29 30 31 32 33 34 35 36 37 38 39 40 41 42 43 44 45 46 47 48 49 50

000
ASUS41 KLWX 041410
RWRLWX

REGIONAL WEATHER ROUNDUP
NATIONAL WEATHER SERVICE BALTIMORE MD/WASHINGTON DC
900 AM EST WED MAR 04 2015

Note: "FAIR" indicates few or no clouds below 12,000 feet
with no significant weather and/or obstructions to visibility.
 TC=TEMPERATURE CELSIUS

 * =Non NWS site. Station does not report precipitation (e.g. rain,
    snow, etc.), thunder, or fog.

DCZ001-MDZ009-015-VAZ040>042-051-053>054-041500-
WASHINGTON METRO

CITY           SKY/WX    TMP DP  RH WIND       PRES   REMARKS
WASHINGTON NAT LGT RAIN  44  39  82 CALM      29.96R
DULLES         LGT RAIN  39  37  92 CALM      29.94R FOG
ANDREWS AFB    CLOUDY    43  41  93 SW7       29.94R
FT BELVOIR     PTSUNNY   43  41  93 SE2       29.96R FOG
QUANTICO       LGT RAIN  41  39  93 CALM      29.97R FOG
COLLEGE PARK*  CLOUDY    41  41 100 CALM      29.94R
LEESBURG*      CLOUDY    37  37 100 CALM      29.93S FOG
MANASSAS*      CLOUDY    39  39 100 CALM      29.95R
GAITHERSBURG*  CLOUDY    37  36  93 CALM      29.96R

$$

MDZ006>007-011-014-041500-
BALTIMORE METRO

CITY           SKY/WX    TMP DP  RH WIND       PRES   REMARKS
BWI AIRPORT    CLOUDY    39  37  92 SW3       29.93R FOG
MD SCIENCE CTR   N/A     41  37  86 MISG      29.95R
MARTIN STATE   CLOUDY    37  37 100 MISG      29.94R FOG
ANNAPOLIS      CLOUDY    39  37  92 NW6       29.94R FOG
FORT MEADE*    CLOUDY    37  37 100 CALM      29.96R VSB 3/4

$$

MDZ012-015-019>023-041500-
MARYLAND EASTERN SHORE

CITY           SKY/WX    TMP DP  RH WIND       PRES   REMARKS
OCEAN CITY     CLOUDY    42  42 100 S6        29.93S
SALISBURY      CLOUDY    49  45  86 SW6       29.94R
BAY BRIDGE AP*   N/A     41  41 100 CALM      29.94R
CAMBRIDGE*     CLOUDY    43  41  93 SW6       29.94R
EASTON*        CLOUDY    45  45 100 CALM      29.95R FOG

$$

MDZ017>025-041500-
SOUTHERN MARYLAND

CITY           SKY/WX    TMP DP  RH WIND       PRES   REMARKS
PATUXENT RIVER CLOUDY    45  42  89 W5        29.94R
ST INIGOES     CLOUDY    41  38  89 S7        29.93R FOG
LEONARDTOWN*   CLOUDY    45  43  93 SW3       29.96R

$$

MDZ003>005-041500-
NORTH CENTRAL MARYLAND

CITY           SKY/WX    TMP DP  RH WIND       PRES   REMARKS
FREDERICK*     CLOUDY    39  34  81 S3        29.96R
HAGERSTOWN APT CLOUDY    41  37  86 S6        29.89S
WESTMINSTER*   PTSUNNY   39  37  93 SW6       29.90R FOG

$$

MDZ501>502-041500-
WESTERN MARYLAND

CITY           SKY/WX    TMP DP  RH WIND       PRES   REMARKS
OAKLAND*       CLOUDY    37 N/A N/A SW10G18   29.88R HAZE
CUMBERLAND*    CLOUDY    37  37 100 CALM      29.95S VSB 1

$$

VAZ025>031-041500-
SHENANDOAH VALLEY

CITY           SKY/WX    TMP DP  RH WIND       PRES   REMARKS
WINCHESTER*    CLOUDY    45  37  76 CALM      29.91R HAZE
FRONT ROYAL*   CLOUDY    41  41 100 CALM      29.91R
LURAY*         CLOUDY    45  45 100 CALM      29.93R FOG
NEW MARKET*    CLOUDY    37  37  99 CALM      29.93R
STAUNTON*      FOG       43  42  96 CALM      29.95R VSB 1/2
WAYNESBORO*    CLOUDY    48  47  95 W7        29.94R

$$

WVZ021-048>050-054>055-041500-
EASTERN WEST VIRGINIA PANHANDLE

CITY           SKY/WX    TMP DP  RH WIND       PRES   REMARKS
MARTINSBURG    CLOUDY    39  35  86 CALM      29.91S FOG
PETERSBURG*    NOT AVBL

$$

VAZ036>039-050-041500-
CENTRAL FOOTHILLS

CITY           SKY/WX    TMP DP  RH WIND       PRES   REMARKS
CHARLOTTESVILL CLOUDY    42  38  85 CALM      29.92R
CULPEPER*      DRIZZLE   43  41  93 CALM      29.95R
ORANGE*        CLOUDY    43  41  93 CALM      29.94F FOG
GORDONSVILLE*  CLOUDY    42  40  93 CALM      29.91F
WARRENTON*     DRIZZLE   41  41 100 CALM      29.93R

$$

VAZ055>057-041500-
NORTH AND CENTRAL PIEDMONT

CITY           SKY/WX    TMP DP  RH WIND       PRES   REMARKS
FREDERICKSBRG* CLOUDY    46  46 100 N5        29.94R FOG
STAFFORD*      DRIZZLE   43  32  65 CALM      29.98R

$$

NCZ024-NYZ072-PAZ021-071-VAZ022-071-041500-
OTHER REGIONAL OBSERVATIONS

CITY           SKY/WX    TMP DP  RH WIND       PRES   REMARKS
NEW YORK CITY  CLOUDY    38  34  85 SW7       29.87R FOG
PHILADELPHIA   LGT RAIN  37  35  92 W10       29.92R FOG
PITTSBURGH     CLOUDY    33  32  96 SW6       29.93R FOG
ROANOKE        RAIN      46  45  96 E3        29.95R VSB 1/8
RICHMOND       CLOUDY    55  50  82 SW8       29.93R
RALEIGH        FOG       47  45  93 SW13      30.02R VSB 1/8

$$

ANZ530>537-041500-
MARINE OBSERVATIONS

STATION/POSITION TIME  TEMP    WIND        PRES
                       AIR SEA DIR/SP/G
                 (UTC) (F)     (DEG/KT/KT) (MB)
THOMAS PT LIGHT  1400   39 31  290/  3/  3 1015.3R
BALT KEY BRIDGE  1300   38     300/  2/  3 1012.6R
COVE POINT       1300   46     260/ 17/ 21 1011.7R
LEWISETTA        1300   41 34   CALM  /  1 1012.6F
SOLOMONS ISLAND  1300      33                N/A

$$




USA.gov is the U.S. government's official web portal to all federal, state and local government web resources and services.